Regional Weather Roundup
Issued by NWS

Home | Current Version | Previous Version | Graphics & Text | Print | Product List | Glossary On
Versions: 1 2 3 4 5 6 7 8 9 10 11 12 13 14 15 16 17 18 19 20 21 22 23 24 25 26 27 28 29 30 31 32 33 34 35 36 37 38 39 40 41 42 43 44 45 46 47 48 49 50
000
ASUS44 KMEG 240900
RWRTN
TENNESSEE HOURLY STATE WEATHER ROUNDUP
NATIONAL WEATHER SERVICE MEMPHIS TN
300 AM CST TUE JAN 24 2017

TNZ002-004-019-021-049-052-054-088>092-241000-
WEST TENNESSEE

CITY           SKY/WX    TMP DP  RH WIND       PRES   REMARKS
MEMPHIS INTL   CLEAR     37  35  92 CALM      29.89R
NWS MEMPHIS      N/A     34 N/A N/A MISG        N/A
JACKSON        CLEAR     32  30  92 CALM      29.89S
DYERSBURG      PTCLDY    34  30  86 CALM      29.89S
UNION CITY       N/A    N/A N/A N/A CALM      29.87F VSB 3/4
PARIS          CLOUDY    39  34  81 CALM      29.88S
$$

TNZ008-025-027-028-033-062-065-066-241000-
NORTH MIDDLE TENNESSEE

CITY           SKY/WX    TMP DP  RH WIND       PRES   REMARKS
NASHVILLE      CLOUDY    42  33  70 NW7       29.87R
CLARKSVILLE    CLOUDY    41  33  73 NW9       29.87R
SMYRNA         CLOUDY    41  35  79 NW9       29.88R
CROSSVILLE     CLOUDY    36  36 100 NW7       29.77S FOG     WCI  30
$$

TNZ061-075-076-078-094-096-097-241000-
SOUTH MIDDLE TENNESSEE

CITY           SKY/WX    TMP DP  RH WIND       PRES   REMARKS
TULLAHOMA      CLOUDY    37  34  87 NW10      29.84R WCI  30
WINCHESTER     CLOUDY    39  36  87 NW7       29.82R WCI  34
COLUMBIA       CLOUDY    41  39  93 NW3       29.84F
SHELBYVILLE    CLOUDY    41  36  81 NW8       29.86R
$$

TNZ017-018-042-046-047-241000-
NORTHEAST TENNESSEE

CITY           SKY/WX    TMP DP  RH WIND       PRES   REMARKS
TRI CITIES     CLOUDY    45  41  86 W15G23    29.68R
$$

TNZ012-013-036-069-073-074-241000-
CENTRAL EAST TENNESSEE

CITY           SKY/WX    TMP DP  RH WIND       PRES   REMARKS
KNOXVILLE      CLOUDY    44  39  82 W10       29.76S
OAK RIDGE      CLOUDY    43  39  86 W6        29.78R
GATLINBURG     CLOUDY    43  39  87 W7        29.75S
$$

TNZ083-085-099-241000-
SOUTHEAST TENNESSEE

CITY           SKY/WX    TMP DP  RH WIND       PRES   REMARKS
CHATTANOOGA    CLOUDY    45  38  76 W6        29.81R
$$

SKY/WX REPORTED AS FAIR MEANS FEW OR NO CLOUDS BELOW
12 THOUSAND FEET.




USA.gov is the U.S. government's official web portal to all federal, state and local government web resources and services.